Location: Concepci�n
(32.5333°N, 117.1167°W)
Time: 19:56:22
(UTC+00:00)

SL-24 R/B - Pass Details

Date: 08 May 2021
Orbit: 506 x 1001 km, 97.5° (Epoch: 18 June)

Event Time Altitude Azimuth Distance (km) Brightness Sun altitude
Rises 12:06:55 0° 169° (S) 2,603 7.1 -10.1°
Reaches altitude 10° 12:08:59 10° 170° (S) 1,711 6.2 -9.7°
Maximum altitude 12:12:37 84° 258° (WSW) 517 3.6 -9.0°
Drops below altitude 10° 12:16:22 10° 347° (NNW) 1,773 6.6 -8.3°
Sets 12:18:32 0° 348° (NNW) 2,708 7.6 -7.9°
